FENGYUN 1C DEB

Satellite information

Favourite Embed

Satellite Type and Status

DEBRISIN ORBIT

Key statistics

Satellite FENGYUN 1C DEB at a glance.

Uptime

9554

Days in orbit

Revolutions

≈ 14.8

Per day

Orbit

SSO

Sun Synchronous Orbit

Inclination

99.0

Latest

Satellite identification and parameters

Extended collection of information and parameters for FENGYUN 1C DEB.

Object identification

Identified? True

Debris? True

Object name: FENGYUN 1C DEB

International designator: 1999-025JS

Object number (NORAD): 29944

Object ID (CCSDS): 29944

Country: PEOPLES REPUBLIC OF CHINA (PRC)

Current information (Y/N): Y

RCS size: SMALL

Orbital parameters

Period: 97.079 minutes

Inclination: 98.9973 deg

SMA: 6996.99 km

Apoapsis: 744.724 km

Periapsis: 492.986 km

RAAN: 99.7087 deg

Eccentricy: 0.017989

Argument of periapsis: 21.6616 deg

Mean anomaly: 339.2081 deg

Mean motion: 14.83323502 rev/day

Mean motion (dot): 0.0001144 rev/day2

B* drag term: 0.0010547 1/REarth

Two-line elements (TLE)

Creation date: July 5, 2025, 5:45 p.m.

Reference frame: TEME

Reference center: EARTH

Epoch: July 5, 2025, 7:35 a.m. UTC

TLE line 0: 0 FENGYUN 1C DEB

TLE line 1: 1 29944U 99025JS 25186.31633272 .00011440 00000-0 10547-2 0 9991

TLE line 2: 2 29944 98.9973 99.7087 0179890 21.6616 339.2081 14.83323502980735

Live tracking on map

Real-time ground track for satellite FENGYUN 1C DEB.

In-orbit conjunctions

A list of the most updated potential collisions computed for object FENGYUN 1C DEB.

Target Orbit TCA Probability of collision Miss distance Type
SL-8 R/B LEO 2024-12-23 18:54:01 0.0001459818 740.0 (m) ROCKET BODY
OBJECT M SSO 2024-11-14 18:42:21 0.001457944 214.0 (m) UNKNOWN
FENGYUN 1C DEB SSO 2024-10-13 16:30:08 0.0001038924 285.0 (m) DEBRIS

Associated space launch

Chinese polar orbiting meteorological satellite

FENGYUN 1C DEB was lifted into orbit during the mission ‘Long March 4B | Feng Yun 1C’, on board a Long March 4B space rocket.

The launch took place on May 10, 1999, 1:33 a.m. from Launch Complex 7.

For more information about the launch, click the button.

Launch to space Long March 4B | Feng Yun 1C
Long March 4B | Feng Yun 1C

Agency: N/A

Status: Launch Successful

Launch date: May 10, 1999, 1:33 a.m. UTC

Rocket: Long March 4B

Launch pad: Launch Complex 7

Location: Taiyuan Satellite Launch Center, People's Republic of China

...

Latest news about this satellite

There are no fresh news available about this satellite. Check back as we update our databases every day.


Newsletter sign-up

Weekly statistics, charts and insights to help you stay on top of the space industry.